Regional Weather Roundup
Issued by NWS Wakefield, VA

Home | Current Version | Previous Version | Text Only | Print | Product List | Glossary On
Versions: 1 2 3 4 5 6 7 8 9 10 11 12 13 14 15 16 17 18 19 20 21 22 23 24 25 26 27 28 29 30 31 32 33 34 35 36 37 38 39 40 41 42 43 44 45 46 47 48 49 50
000
ASUS41 KAKQ 211710
RWRAKQ

REGIONAL WEATHER ROUNDUP
NATIONAL WEATHER SERVICE WAKEFIELD VA
1200 PM EST SUN DEC 21 2014

Note: "fair" indicates few or no clouds below 12,000 feet with no
significant weather and/or obstructions to visibility. * = Denotes
station may not report precipitation (e.g., rain,snow,etc.),
thunder or fog.

VAZ042-051-052>054-056-211800-
NORTHERN VIRGINIA

CITY           SKY/WX    TMP DP  RH WIND       PRES   REMARKS
WASH NATIONAL  PTSUNNY   42  24  49 NE3       30.36F
DULLES         CLOUDY    37  23  56 CALM      30.34F
FORT BELVOIR   CLOUDY    40  23  51 W2        30.35F
QUANTICO       CLOUDY    39  24  55 E3        30.36F
FREDERICKSBRG* CLOUDY    40  27  59 CALM      30.34F
STAFFORD*      PTSUNNY   39  24  55 CALM      30.38F
WARRENTON      CLOUDY    40  31  69 CALM      30.34F
CULPEPER*      PTSUNNY   41  27  56 CALM      30.34F
MANASSAS*      NOT AVBL
LEESBURG*      CLOUDY    37  28  70 MISG      30.35F
WINCHESTER     CLOUDY    36  21  55 CALM      30.32F
FRONT ROYAL*   CLOUDY    36  25  64 CALM      30.31F
LURAY*         CLOUDY    41  28  60 NE6       30.29F
$$

VAZ048-049-060>072-079>083-211800-
CENTRAL AND SOUTH CENTRAL VIRGINIA

CITY           SKY/WX    TMP DP  RH WIND       PRES   REMARKS
RICHMOND       CLOUDY    42  25  50 VRB5      30.34F
CHESTERFIELD*  CLOUDY    41  19  42 CALM      30.35F
PETERSBURG*    CLOUDY    43  26  52 NE6       30.34F
HANOVER        CLOUDY    40  26  57 N3        30.35F
TAPPAHANNOCK*  CLOUDY    40  23  51 CALM      30.35F
QUINTON*       CLOUDY    40  28  63 CALM      30.34F
CHARLOTTSVILLE CLOUDY    39  26  59 CALM      30.31F
GORDONSVILLE*  CLOUDY    38  26  61 CALM      30.32F
ORANGE*        CLOUDY    39  28  65 CALM      30.34F
LOUISA*        CLOUDY    39  27  60 CALM      30.31F
BUMPASS*       CLOUDY    38  26  60 CALM      30.32F
FARMVILLE*     CLOUDY    47  29  50 CALM      30.31F
CREWE*         CLOUDY    41  27  57 E3        30.33F
FORT PICKETT*  CLOUDY    42  28  59 CALM      30.32F
CHASE CITY*    CLOUDY    43  32  64 E5        30.31F
CLARKSVILLE*   CLOUDY    41  32  70 NE5       30.30F
SOUTH HILL*    CLOUDY    42  30  63 NE5       30.37F
LAWRENCEVILLE* CLOUDY    41  29  64 CALM      30.31F
EMPORIA*       CLOUDY    41  28  60 N7        30.34F
$$

VAZ088>098-211800-
SOUTHEAST VIRGINIA

CITY           SKY/WX    TMP DP  RH WIND       PRES   REMARKS
NORFOLK        CLOUDY    41  30  65 NE10      30.33F
VIRGINIA BEACH CLOUDY    43  29  57 N9        30.32F
NORFOLK NAVAL  CLOUDY    44  31  60 NE10      30.34F
WEST POINT*    CLOUDY    43  26  50 CALM      30.36F
SALUDA*        CLOUDY    38  26  60 W5        30.34F
NEWPORT NEWS   CLOUDY    44  28  53 NE6       30.34F
LANGLEY AFB    CLOUDY    41  30  65 NE6       30.34F
FORT EUSTIS    CLOUDY    42  26  53 E2        30.32F
WILLIAMSBURG*  CLOUDY    45  30  57 CALM      30.35F
HR EXEC AP*    CLOUDY    43  32  65 NE7       30.35F
FRANKLIN*      CLOUDY    43  28  56 NE8       30.32F
WAKEFIELD      CLOUDY    42  27  55 VRB5      30.33F
$$

VAZ020-022-025-037-045-211800-
WEST CENTRAL AND SOUTHWEST VIRGINIA

CITY           SKY/WX    TMP DP  RH WIND       PRES   REMARKS
STAUNTON*      SUNNY     38  26  61 CALM      30.30F
WAYNESBORO*    CLOUDY    37  27  67 CALM      30.27F
HOT SPRINGS VA SUNNY     35  24  64 W7        30.15F
LYNCHBURG      CLOUDY    40  30  67 E3        30.30F
DANVILLE       CLOUDY    44  34  67 VRB3      30.30F
SOUTH BOSTON*  CLOUDY    42  32  66 CALM      30.31F
MARTINSVILLE   CLOUDY    43  34  70 CALM      30.30F
ROANOKE        CLOUDY    42  29  59 SE6       30.28F
BLACKSBURG     CLOUDY    39  29  66 CALM      30.26F
DUBLIN*        CLOUDY    42  33  72 CALM      30.24F
MARION*        CLOUDY    42  35  76 E3        30.22F
HILLSVILLE*    CLOUDY    39  33  79 CALM      30.20F
RICHLANDS*     SUNNY     41  29  64 CALM      30.19F
WISE*          SUNNY     41  28  60 E3        30.19F
ABINGDON*      MOSUNNY   46  35  65 S5        30.20F
$$

MDZ021>025-VAZ099-100-211800-
SOUTHERN MARYLAND AND THE DELMARVA PENINSULA

CITY           SKY/WX    TMP DP  RH WIND       PRES   REMARKS
PATUXENT RIVER PTSUNNY   39  28  64 CALM      30.34F
BAY BRIDGE APT   N/A     36  23  60 NW6       30.35F
LEONARDTOWN    CLOUDY    37  27  65 NW5       30.35F
DOVER          CLOUDY    38  25  58 NW9       30.30F
GEORGETOWN     CLOUDY    38  23  55 VRB6      30.33F
EASTON         CLOUDY    39  27  60 N5        30.37F
CAMBRIDGE      MOSUNNY   37  28  70 NW5       30.33F
SALISBURY      CLOUDY    42  25  50 NW7       30.33F
OCEAN CITY     CLOUDY    40  25  55 N7        30.33F
WALLOPS ISLAND CLOUDY    40  27  59 N5        30.33F
ACCOMACK*      CLOUDY    39  25  56 CALM      30.33F
$$

NCZ012>017-030>032-211800-
NORTH CENTRAL AND EASTERN NORTH CAROLINA

CITY           SKY/WX    TMP DP  RH WIND       PRES   REMARKS
ROANOKE RAPIDS CLOUDY    43  30  61 NE5       30.32F
RALEIGH        CLOUDY    44  35  70 E3        30.30F
ELIZABETH CITY SUNNY     49  33  54 N6        30.31F
AHOSKIE*       MOSUNNY   42  27  55 NE3       30.32F
EDENTON*       SUNNY     46  32  56 NE6       30.31F
CURRITUCK*     CLOUDY    45  31  59 NE7       30.32F
KILL DEVIL HLS SUNNY     46  36  68 N8        30.29F
MANTEO         SUNNY     46  36  66 NE12      30.30F
CAPE HATTERAS  CLOUDY    47  39  74 NE8G20    30.27F
TARBORO*       SUNNY     46  34  61 N6        30.32F
GOLDSBORO      CLOUDY    44  39  84 NE5       30.27F
WASHINGTON     CLOUDY    43  33  66 NE6       30.31F
GREENVILLE     CLOUDY    43  32  65 NE8       30.31F
NEW BERN       CLOUDY    46  35  65 NE8       30.30F
WILMINGTON     CLOUDY    47  36  65 NE10      30.25F
$$

VAZ048-211800-
ELSEWHERE

CITY           SKY/WX    TMP DP  RH WIND       PRES   REMARKS
HARRISBURG PA  CLOUDY    34  21  59 NW8       30.33F
BALTIMORE      PTSUNNY   37  22  54 W6        30.33F
ANNAPOLIS      CLOUDY    37  23  56 NW5       30.34F
ANDREWS AFB    CLOUDY    38  23  55 VRB5      30.33F
PHILADELPHIA   MOSUNNY   39  21  48 VRB7      30.33F
HENDERSON NC   CLOUDY    43  31  64 N3        30.30F
GREENSBORO     CLOUDY    44  35  70 E3        30.26F
ROCKY MOUNT    PTSUNNY   46  34  62 N8        30.31F
$$

VAZ100-211800-
MARINE

STATION/POSITION TIME  TEMP    WIND        PRES    WAVE   SWELL
                       AIR SEA DIR/SP/G            HT/PER HT/PER
                 (UTC) (F)     (DEG/KT/KT) (MB)    (FT/S) (FT/S)
CAPE MAY NJ      1700   36 43  330/  7/  9 1026.3F
LEWES DE         1700   36 41  310/  8/ 10 1026.7F
15NM E FENWICK I 1700   38 45              1026.4F   1/10
OCEAN-CITY-INLET 1700   37 44  350/  5/  7 1026.4F
WACHAPREAGUE VA  1700   39 40  330/  4/  5 1027.1F
THOMAS POINT MD  1700   36 40  360/  3/  4 1028.6F
GOOSES REEF MD   1700   37     VRB  4/  8  1026.8F
COVE POINT MD    1700   36     350/  6/  8 1027.4F
SOLOMONS ISLAND  1700      42                N/A
BISHOPS HEAD MD  1700   37 37   20/  4/  5 1026.8F
POTOMAC MD       1700   38      50/  6/  8 1026.7F
CAMBRIDGE MD     1700   36 40  340/  3/  4 1027.3F
LEWISETTA VA     1700   38 41  340/  3/  4 1027.2F
RAPPAHANNOCK LGT 1700          360/  4/  5 1027.9S
STINGRAY PT      1700   39     360/  4/  6 1027.9F
YORK RVR RNG VA  1700   39     350/  4/  5 1026.9F
YORKTOWN VA      1700   40 45   50/  3/  3 1027.2F
JAMESTOWN VA     1700   39      40/  2/  4   N/A
DOMINION TERM VA 1700   40      70/  7/  8 1027.4F
KIPTOPEKE VA     1700      48   30/  2/  4   N/A
CHES BAY BRIDGE  1700   39 46   20/  5/  8 1026.9F
CAPE HENRY VA    1700   39      10/ 10/ 11 1025.9F
CHESAPEAKE LGHT  1600   40      20/  8/  9 1028.0S
WILLOUBY STN VA  1700   39      40/  6/  7 1027.7F
S CRANEY ISL VA  1700           30/  8/ 10 1027.0F
CAPE HENRY BUOY  1700      49                N/A     2/10
1ST LANDING BUOY 1700   40      30/  8/ 10 1027.1F
CAPE CHARLES BUO 1700      47                N/A     2/ 3   2/11
64NM E OF VA BCH 1700   45 54   20/ 12/ 14 1025.8F   2/ 3   2/10
DUCK PIER NC     1700   44 45   30/ 11/ 12 1025.5F
44100 DUCK FRF   1700      51                N/A     2/ 4
44056 DUCK FRF   1700      46                N/A     2/ 4
OREGON INLET NC  1700   47 46   10/ 11/ 15 1025.6F
HATTERAS NC      1700   46 50   30/ 11/ 17 1025.4F
DIAMOND SHLS NC  1700   52                 1024.8F   3/ 5
CAPE LOOKOUT NC  1600   44      20/ 16/ 19 1025.4F
$$


USA.gov is the U.S. government's official web portal to all federal, state and local government web resources and services.